Simultaneous Nadir Overpasses (SNOs) Predictions

Prediction of SNOs between METOP-C and LANDSAT-8 Satellite Orbit:

Table of predicted SNOs for the next 14.0 days since TLE Epoch: 8/14/2021
Index Date (METOP-C) Time (METOP-C) Lat,Lon (METOP-C) SZA (METOP-C ) Date (LANDSAT-8) Time (LANDSAT-8) Lat,Lon (LANDSAT-8) SZA (LANDSAT-8 ) Distance(km) Time Diff (sec)
1 08/14/2021 05:58:06 -81.17, -48.94 111.06 08/14/2021 05:58:49 -81.16, -49.07 111.06 2.30 43
2 08/14/2021 06:48:46 81.18, 118.95 69.03 08/14/2021 06:48:14 81.19, 119.03 69.02 1.31 32
3 08/17/2021 01:32:27 -81.16, 17.32 110.18 08/17/2021 01:33:05 -81.16, 17.42 110.15 1.80 38
4 08/17/2021 02:23:06 81.19,-174.41 69.95 08/17/2021 02:22:30 81.19,-174.51 69.92 1.70 36
5 08/19/2021 21:06:47 -81.17, 83.95 109.23 08/19/2021 21:07:21 -81.16, 83.89 109.23 1.15 34
6 08/19/2021 21:57:27 81.19,-108.16 70.86 08/19/2021 21:56:46 81.19,-108.07 70.85 1.69 41
7 08/22/2021 16:41:07 -81.16, 150.20 108.30 08/22/2021 16:41:36 -81.16, 150.33 108.27 2.25 29
8 08/22/2021 17:31:46 81.19, -41.55 71.83 08/22/2021 17:31:01 81.19, -41.65 71.80 1.78 45
9 08/25/2021 12:15:26 -81.18,-142.81 107.25 08/25/2021 12:15:51 -81.19,-142.90 107.24 1.49 25



Historial Predications of SNOs between METOP-C and LANDSAT-8
